This is the latest recevied weather packets stored in our database for station/object KC1BRV. If no packets are shown the sender has not sent any weather packets the latest 10 day(s).
| Time | Temp. | Humidity | Pressure | Rain* | Wind** | Luminosity | Snow |
|---|---|---|---|---|---|---|---|
| 1788383586 | 21.11° C | 68% | 1021.3 hPa | 0 mm | - | 77 W/m² | - |
| 1788383286 | 21.11° C | 68% | 1021.3 hPa | 0 mm | - | 79 W/m² | - |
| 1788382980 | 21.11° C | 67% | 1021.4 hPa | 0 mm | - | 83 W/m² | - |
| 1788382678 | 21.11° C | 68% | 1021.7 hPa | 0 mm | - | 97 W/m² | - |
| 1788382374 | 21.67° C | 66% | 1021.8 hPa | 0 mm | - | 113 W/m² | - |
| 1788382069 | 21.67° C | 64% | 1021.9 hPa | 0 mm | - | 125 W/m² | - |
| 1788381764 | 21.67° C | 66% | 1021.8 hPa | 0 mm | - | 141 W/m² | - |
| 1788381464 | 21.67° C | 64% | 1021.9 hPa | 0 mm | - | 133 W/m² | - |
| 1788381159 | 21.67° C | 63% | 1021.8 hPa | 0 mm | - | 118 W/m² | - |
| 1788380854 | 21.67° C | 61% | 1021.8 hPa | 0 mm | - | 126 W/m² | - |
| 1788380551 | 21.67° C | 64% | 1021.9 hPa | 0 mm | - | 134 W/m² | - |
| 1788380247 | 21.67° C | 64% | 1021.8 hPa | 0 mm | - | 141 W/m² | - |
| 1788379946 | 21.67° C | 61% | 1021.9 hPa | 0 mm | - | 140 W/m² | - |
| 1788379641 | 21.67° C | 60% | 1021.8 hPa | 0 mm | - | 139 W/m² | - |
| 1788379337 | 22.22° C | 62% | 1022 hPa | 0 mm | - | 135 W/m² | - |
| 1788379032 | 22.22° C | 58% | 1021.9 hPa | 0 mm | - | 142 W/m² | - |
| 1788378731 | 22.22° C | 60% | 1021.9 hPa | 0 mm | - | 148 W/m² | - |
| 1788378430 | 22.22° C | 62% | 1022.1 hPa | 0 mm | - | 156 W/m² | - |
| 1788378125 | 22.78° C | 64% | 1022 hPa | 0 mm | - | 151 W/m² | - |
| 1788377822 | 22.78° C | 62% | 1021.9 hPa | 0 mm | - | 153 W/m² | - |
| 1788377517 | 23.33° C | 60% | 1022 hPa | 0 mm | - | 137 W/m² | - |
| 1788377215 | 23.33° C | 62% | 1022.1 hPa | 0 mm | - | 102 W/m² | - |
| 1788376914 | 23.89° C | 60% | 1022.1 hPa | 0 mm | - | 100 W/m² | - |
| 1788376608 | 23.89° C | 62% | 1022.2 hPa | 0 mm | - | 110 W/m² | - |
| 1788376303 | 23.33° C | 64% | 1022 hPa | 0 mm | - | 96 W/m² | - |
* Rain latest hour (hover to see other rain measurements)
** Current wind speed in m/s (hover to see current wind gust speed)